Total_Precipitation_Accumulation
0.82 0.81 0.82 0.74 0.69 0.70 0.75 0.91 1.18 1.02 0.60 0.44 0.42 0.45 0.52 0.61 0.70 0.69 0.67 0.73 0.81 0.93 1.06 1.14 1.21 1.41 1.80 2.44 3.33 4.28 4.48 3.80 2.96 2.44 2.40 2.85 3.29 3.72
0.88 0.89 0.87 0.87 0.85 0.80 0.80 0.85 1.00 1.14 0.85 0.43 0.39 0.43 0.56 0.66 0.78 0.78 0.78 0.85 0.85 0.93 1.02 1.08 1.12 1.24 1.45 1.82 2.39 3.26 4.13 4.31 3.76 3.10 2.76 2.86 3.18 3.51
0.95 1.00 0.98 0.96 1.03 0.98 0.92 0.89 0.90 1.01 1.02 0.53 0.40 0.43 0.62 0.82 0.87 0.88 0.93 0.88 0.82 0.86 0.93 0.99 1.06 1.16 1.35 1.58 1.91 2.45 3.28 4.00 4.20 3.86 3.46 3.18 3.16 3.27
1.02 1.04 1.07 1.08 1.11 1.09 1.08 0.99 0.88 0.84 0.94 0.78 0.53 0.54 0.67 0.83 0.89 0.93 0.99 0.97 0.89 0.91 0.95 1.01 1.08 1.18 1.34 1.50 1.70 1.98 2.59 3.23 3.80 4.01 3.82 3.44 3.25 3.33
1.28 1.25 1.19 1.18 1.19 1.14 1.14 1.10 1.00 0.90 0.88 0.90 0.72 0.63 0.71 0.81 0.93 1.00 1.04 1.04 1.04 1.07 1.02 1.04 1.13 1.20 1.30 1.42 1.55 1.75 2.03 2.40 2.92 3.56 3.83 3.66 3.39 3.31
1.35 1.37 1.34 1.34 1.30 1.26 1.26 1.22 1.19 1.18 1.13 1.12 0.99 0.83 0.80 0.83 1.01 1.19 1.26 1.13 1.12 1.11 1.11 1.11 1.19 1.24 1.29 1.28 1.25 1.42 1.68 2.01 2.53 3.10 3.60 3.74 3.44 3.27
1.18 1.19 1.26 1.41 1.48 1.56 1.61 1.51 1.47 1.58 1.54 1.47 1.28 1.10 0.99 1.04 1.15 1.25 1.45 1.38 1.27 1.19 1.19 1.12 1.14 1.14 1.14 1.18 1.20 1.34 1.55 1.69 2.03 2.55 3.07 3.47 3.49 3.33
1.04 0.97 0.98 1.18 1.29 1.43 1.58 1.61 1.69 1.85 1.94 1.87 1.61 1.36 1.11 1.06 1.17 1.40 1.61 1.77 1.69 1.31 1.30 1.30 1.26 1.29 1.19 1.14 1.20 1.28 1.43 1.59 1.76 2.10 2.52 2.93 3.20 3.32
0.86 0.86 0.86 0.93 1.08 1.07 1.24 1.36 1.44 1.61 1.84 1.95 1.91 1.50 1.24 1.13 1.39 1.58 1.64 1.77 1.68 1.45 1.51 1.69 1.50 1.42 1.31 1.27 1.28 1.20 1.29 1.42 1.54 1.75 2.07 2.47 2.83 3.06
0.71 0.70 0.71 0.76 0.91 1.09 1.21 1.23 1.17 1.27 1.55 1.76 1.91 1.73 1.51 1.45 1.69 1.98 2.10 2.11 1.91 1.71 1.68 2.00 1.78 1.62 1.52 1.41 1.33 1.18 1.19 1.26 1.37 1.50 1.70 2.05 2.40 2.65
0.69 0.69 0.65 0.65 0.91 1.17 1.19 1.14 1.04 1.06 1.25 1.54 1.76 1.84 1.89 2.00 2.16 2.46 2.64 2.59 2.43 2.07 1.85 2.01 2.02 1.90 1.76 1.66 1.47 1.27 1.16 1.17 1.22 1.33 1.44 1.65 1.95 2.32
0.75 0.71 0.79 0.84 1.03 1.12 1.06 1.12 1.17 1.06 1.02 1.10 1.21 1.33 1.42 1.57 1.91 2.19 2.43 2.57 2.54 2.48 2.05 1.98 2.11 2.16 2.37 1.98 1.57 1.24 1.10 1.12 1.13 1.20 1.29 1.39 1.61 1.81
0.89 0.83 0.78 0.92 0.98 1.03 1.08 1.10 1.25 1.15 1.06 1.15 1.16 1.13 1.18 1.32 1.51 1.80 2.15 2.44 2.61 2.51 2.08 2.11 2.29 2.10 2.27 2.18 1.81 1.42 1.10 1.02 1.01 1.08 1.17 1.24 1.36 1.47
0.91 0.80 0.80 0.95 0.99 1.05 1.05 1.14 1.22 1.18 1.10 1.12 1.07 1.05 1.10 1.20 1.34 1.55 1.82 2.06 2.20 2.24 2.02 2.03 2.41 2.18 2.05 1.90 1.81 1.63 1.28 1.03 0.92 0.92 0.99 1.21 1.35 1.40
1.08 1.09 1.01 1.05 1.06 0.99 1.03 1.07 1.06 1.03 1.09 1.11 1.02 0.95 0.98 1.10 1.20 1.34 1.52 1.74 1.91 2.02 2.02 1.94 2.10 2.13 2.08 1.93 1.62 1.44 1.38 1.26 0.97 0.90 0.97 1.03 1.10 1.21
1.22 1.21 1.17 1.14 1.06 1.00 0.98 0.92 0.88 0.95 1.01 1.01 0.94 0.86 0.85 0.97 1.12 1.25 1.43 1.62 1.88 1.98 1.99 1.99 2.00 2.17 2.16 1.78 1.55 1.36 1.20 1.35 1.16 0.94 0.98 1.05 1.05 1.00
1.32 1.24 1.14 1.13 1.12 1.02 0.91 0.84 0.83 0.88 0.90 0.84 0.85 0.86 0.88 0.95 1.04 1.16 1.39 1.56 1.76 1.80 1.93 2.10 2.13 2.12 2.15 2.04 1.88 1.44 1.14 1.07 1.04 0.95 1.00 1.16 1.23 1.12
1.32 1.21 1.03 0.95 0.96 0.91 0.88 0.84 0.80 0.81 0.79 0.80 0.85 0.89 0.94 1.00 1.05 1.11 1.32 1.53 1.61 1.61 1.71 1.91 2.07 2.17 2.30 2.38 2.12 1.61 1.24 1.11 1.06 0.98 0.98 1.15 1.37 1.29
1.11 1.00 0.89 0.83 0.79 0.77 0.79 0.77 0.76 0.75 0.78 0.83 0.85 0.84 0.88 0.95 1.01 1.08 1.20 1.35 1.45 1.50 1.57 1.66 1.84 2.02 2.15 2.29 2.35 1.91 1.50 1.29 1.20 1.21 1.14 1.13 1.28 1.32
0.95 0.91 0.89 0.85 0.80 0.78 0.78 0.79 0.77 0.76 0.82 0.86 0.86 0.82 0.85 0.93 0.98 1.01 1.08 1.22 1.32 1.38 1.46 1.52 1.66 1.85 1.98 1.95 2.07 2.08 1.86 1.52 1.36 1.39 1.32 1.26 1.29 1.39
0.92 0.88 0.88 0.92 0.90 0.87 0.83 0.83 0.85 0.84 0.83 0.88 0.86 0.83 0.83 0.91 0.94 0.94 1.00 1.12 1.21 1.26 1.34 1.40 1.51 1.66 1.79 1.80 1.79 1.80 1.91 1.89 1.58 1.41 1.35 1.41 1.50 1.53
0.88 0.88 0.87 0.91 0.95 0.93 0.90 0.89 0.91 0.89 0.89 0.91 0.86 0.82 0.83 0.88 0.91 0.91 0.95 0.98 1.02 1.09 1.20 1.28 1.39 1.59 1.79 1.89 1.79 1.66 1.76 1.93 1.95 1.69 1.47 1.43 1.63 1.82
0.91 0.92 0.89 0.90 0.92 0.92 0.90 0.90 0.91 0.89 0.88 0.87 0.82 0.76 0.76 0.83 0.84 0.85 0.85 0.83 0.87 0.95 1.09 1.23 1.35 1.52 1.71 1.79 1.79 1.64 1.58 1.69 1.82 1.85 1.87 1.64 1.35 1.23